Weather in Altsynkhuta

Russia / Republic of Kalmykia     47°02′08″N   44°55′28″E
temp.,
°C
wind,
m/s
gust,
m/s
humid.,
%
clouds,
%
prec.,
mm/h
press.,
hPa
HPBL,
m
17 may, mon
mon1700:00+21e615305 0.0 1009291
03:00+20e615345 0.0 1009246
06:00+21ese7173952 0.0 1009393
09:00+29se9142280 0.0 10091610
12:00+32se111413100 0.0 10082635
15:00+32se11131278 0.0 10082756
18:00+29se8131788 0.0 1008607
21:00+23ese512249 0.0 1008208
18 may, tue
tue1800:00+21e462895 0.0 100764
03:00+19e4532100 0.0 100661
06:00+20ese3538100 0.0 1007122
09:00+26ese3530100 0.0 1007707
12:00+29ese6924100 0.0 10061422
15:00+27ese6932100 0.0 10061081
18:00+28se573618 0.0 1005402
21:00+21wnw911691 0.0 1008312
19 may, wed
wed1900:00+19wnw611744 0.0 1009341
03:00+17wnw49815 0.1 1008250
06:00+18nw69765 0.0 1008316
09:00+23nw675499 0.0 1007818
12:00+26wnw7739100 0.0 10071536
15:00+18w151671100 0.1 1010774
18:00+17w10136596 0.0 1012761
21:00+16wsw3870100 0.0 1014353
20 may, thu
thu2000:00+15w713732 0.0 1015523
03:00+14wsw410870 0.0 1016346
06:00+14wsw510804 0.0 1017458
09:00+19w685649 0.0 10171378
12:00+20wnw6851100 0.0 10181615
15:00+24wnw673696 0.0 10172477
18:00+22wnw55457 0.0 10181093
21:00+18nnw22580 0.0 101912
21 may, fri
fri2100:00+16nne22620 0.0 101911
03:00+15e22660 0.0 101911
06:00+17sse23594 0.0 102093
09:00+22ese22400 0.0 1020979
12:00+26e22320 0.0 10201656
15:00+28ene22260 0.0 10191994
18:00+28ene34251 0.0 10181103
21:00+23e45311 0.0 101966